East Wenatchee, WA

3:55 AM PST on December 06, 2016 (GMT -0800)
Pangborn Memorial

Weather History for KEAT - September, 2013

Change the Weather History Date:

Wednesday, September 25, 2013

  Actual Average Record
Temperature  
Mean Temperature 45 °F 61 °F  
Max Temperature 55 °F 73 °F 87 °F (1962)
Min Temperature 35 °F 49 °F 34 °F (1972)
Degree Days  
Heating Degree Days 20 5  
Month to date heating degree days 104 67  
Since 1 July heating degree days 128 81  
Cooling Degree Days 0 1  
Month to date cooling degree days 69 77  
Year to date cooling degree days 383 865  
Growing Degree Days 7 (Base 50)    
Moisture  
Dew Point 36 °F    
Average Humidity 49    
Maximum Humidity 77    
Minimum Humidity 24    
Precipitation  
Precipitation 0.03 in 0.01 in 0.36 in (1977)
Month to date precipitation 0.84 0.28  
Year to date precipitation 9.50 5.00  
Snow  
Snow 0.00 in - - ()
Month to date snowfall 0.0  
Snow Depth 0.00 in    
Sea Level Pressure  
Sea Level Pressure 29.83 in    
Wind  
Wind Speed 8 mph (WNW)    
Max Wind Speed 14 mph    
Max Gust Speed 17 mph    
Visibility 10 miles    
Events Rain    
T = Trace of Precipitation, MM = Missing Value Source: NWS Daily Summary

Daily Weather History Graph

Daily Weather History Graph

Search for Another Location

Airport or City:

Trip Planner

Search our weather history database for the weather conditions in past years. The results will help you decide how hot, cold, wet, or windy it might be!

Date:

Astronomy

Sep. 25, 2013 Rise Set
Actual Time 6:52 AM PDT 6:51 PM PDT
Civil Twilight 6:21 AM PDT 7:22 PM PDT
Nautical Twilight 5:45 AM PDT 7:58 PM PDT
Astronomical Twilight 5:08 AM PDT 8:34 PM PDT
Moon 10:41 PM PDT (9/25) 1:23 PM PDT (9/25)
Length of Visible Light 13h 00m
Length of Day
11h 59m
Waning Gibbous, 63% of the Moon is Illuminated
Sep 25
Waning Gibbous
Sep 26
Last Quarter
Oct 4
New
Oct 11
First Quarter
Oct 18
Full

Hourly Weather History & Observations

Time (PDT) Temp. Dew Point Humidity Pressure Visibility Wind Dir Wind Speed Gust Speed Precip Events Conditions
12:55 AM 50.0 °F 37.0 °F 61% 29.79 in 10.0 mi NNW 8.1 mph - N/A   Mostly Cloudy
1:55 AM 50.0 °F 37.0 °F 61% 29.78 in 10.0 mi NNW 8.1 mph - N/A   Clear
2:55 AM 51.1 °F 37.0 °F 59% 29.78 in 10.0 mi NNW 9.2 mph - N/A   Overcast
3:55 AM 51.1 °F 37.0 °F 59% 29.79 in 10.0 mi NNW 6.9 mph - N/A   Overcast
4:55 AM 50.0 °F 37.9 °F 63% 29.80 in 10.0 mi NW 8.1 mph - 0.00 in   Overcast
5:55 AM 46.9 °F 39.9 °F 77% 29.81 in 10.0 mi Calm Calm - 0.00 in   Overcast
6:55 AM 46.9 °F 39.0 °F 74% 29.82 in 10.0 mi West 4.6 mph - N/A   Overcast
7:55 AM 51.1 °F 37.9 °F 61% 29.83 in 10.0 mi WNW 8.1 mph - N/A   Scattered Clouds
8:55 AM 53.1 °F 39.0 °F 59% 29.83 in 10.0 mi WNW 10.4 mph - N/A   Clear
9:55 AM 55.9 °F 37.9 °F 51% 29.83 in 10.0 mi West 9.2 mph - N/A   Clear
10:55 AM 57.9 °F 37.0 °F 46% 29.82 in 10.0 mi SW 5.8 mph - N/A   Clear
11:55 AM 63.0 °F 33.1 °F 33% 29.80 in 10.0 mi West 11.5 mph - N/A   Clear
12:55 PM 64.9 °F 30.0 °F 27% 29.79 in 10.0 mi West 10.4 mph - N/A   Partly Cloudy
1:55 PM 66.9 °F 28.9 °F 24% 29.79 in 10.0 mi WNW 8.1 mph 17.3 mph N/A   Clear
2:55 PM 66.0 °F 28.9 °F 25% 29.79 in 10.0 mi West 9.2 mph - N/A   Mostly Cloudy
3:55 PM 68.0 °F 30.0 °F 24% 29.78 in 10.0 mi West 12.7 mph - N/A   Overcast
4:55 PM 66.0 °F 32.0 °F 28% 29.80 in 10.0 mi WNW 13.8 mph - N/A   Overcast
5:55 PM 63.0 °F 36.0 °F 37% 29.82 in 10.0 mi NW 10.4 mph - N/A   Mostly Cloudy
6:55 PM 61.0 °F 36.0 °F 39% 29.84 in 10.0 mi WNW 10.4 mph - N/A   Mostly Cloudy
7:55 PM 60.1 °F 39.9 °F 47% 29.87 in 10.0 mi West 6.9 mph - 0.00 in Rain Light Rain
8:55 PM 60.1 °F 35.1 °F 39% 29.90 in 10.0 mi NE 3.5 mph - 0.00 in   Overcast
9:55 PM 55.9 °F 41.0 °F 57% 29.91 in 10.0 mi WNW 8.1 mph - N/A   Overcast
10:55 PM 54.0 °F 39.0 °F 57% 29.93 in 10.0 mi North - - N/A   Mostly Cloudy
11:55 PM 54.0 °F 39.0 °F 57% 29.93 in 10.0 mi North 3.5 mph - N/A   Overcast